Weather History for Oxford, CT

Change the Weather History Date:

Wednesday, July 3, 2013

  Actual Average Record
Temperature  
Mean Temperature 76 °F -  
Max Temperature 82 °F 76 °F 91 °F (2002)
Min Temperature 69 °F 58 °F 42 °F (2001)
Cooling Degree Days 10    
Growing Degree Days 26 (Base 50)    
Moisture  
Dew Point 69 °F    
Average Humidity 85    
Maximum Humidity 94    
Minimum Humidity 70    
Precipitation  
Precipitation 0.00 in - - ()
Sea Level Pressure  
Sea Level Pressure 30.25 in    
Wind  
Wind Speed 5 mph (SW)    
Max Wind Speed 10 mph    
Max Gust Speed 16 mph    
Visibility 10 miles    
Events      
Averages and records for this station are not official NWS values.
T = Trace of Precipitation, MM = Missing Value Source: NWS Daily Summary

Daily Weather History Graph

Daily Weather History Graph

Search for Another Location

Airport:

Trip Planner

Search our weather history database for the weather conditions in past years. The results will help you decide how hot, cold, wet, or windy it might be!

Date:

Astronomy

Jul. 03, 2013 Rise Set
Actual Time 5:23 AM EDT 8:29 PM EDT
Civil Twilight 4:50 AM EDT 9:03 PM EDT
Nautical Twilight 4:06 AM EDT 9:46 PM EDT
Astronomical Twilight 3:15 AM EDT 10:37 PM EDT
Moon 2:01 AM EDT (7/3) 4:36 PM EDT (7/3)
Length of Visible Light 16h 13m
Length of Day
15h 05m
Waning Crescent, 18% of the Moon is Illuminated
Jul 3
Waning Crescent
Jul 8
New
Jul 15
First Quarter
Jul 22
Full
Jul 29
Last Quarter

Hourly Weather History & Observations

Time (EDT) Temp. Heat Index Dew Point Humidity Pressure Visibility Wind Dir Wind Speed Gust Speed Precip Events Conditions
12:15 AM 71.6 °F - 68.0 °F 88% 30.22 in 10.0 mi SW 4.6 mph - N/A   Partly Cloudy
12:35 AM 71.6 °F - 68.0 °F 88% 30.22 in 10.0 mi SSW 5.8 mph - N/A   Clear
12:55 AM 71.6 °F - 68.0 °F 88% 30.22 in 10.0 mi SW 6.9 mph - N/A   Clear
1:15 AM 71.6 °F - 68.0 °F 88% 30.22 in 10.0 mi SW 5.8 mph - N/A   Clear
1:35 AM 71.6 °F - 68.0 °F 88% 30.22 in 10.0 mi SSW 3.5 mph - N/A   Clear
1:55 AM 71.6 °F - 66.2 °F 83% 30.23 in 10.0 mi SW 3.5 mph - N/A   Clear
2:15 AM 71.6 °F - 66.2 °F 83% 30.23 in 10.0 mi SSW 3.5 mph - N/A   Scattered Clouds
2:35 AM 69.8 °F - 66.2 °F 88% 30.23 in 10.0 mi SSW 4.6 mph - N/A   Mostly Cloudy
2:55 AM 69.8 °F - 66.2 °F 88% 30.22 in 10.0 mi SSW 3.5 mph - N/A   Mostly Cloudy
3:15 AM 69.8 °F - 66.2 °F 88% 30.22 in 10.0 mi SW 4.6 mph - N/A   Mostly Cloudy
3:35 AM 69.8 °F - 66.2 °F 88% 30.23 in 10.0 mi SSW 4.6 mph - N/A   Mostly Cloudy
3:55 AM 69.8 °F - 66.2 °F 88% 30.23 in 10.0 mi SSW 5.8 mph - N/A   Mostly Cloudy
4:15 AM 69.8 °F - 66.2 °F 88% 30.23 in 10.0 mi SW 4.6 mph - N/A   Mostly Cloudy
4:35 AM 69.8 °F - 66.2 °F 88% 30.23 in 10.0 mi WSW 3.5 mph - N/A   Overcast
4:55 AM 69.8 °F - 66.2 °F 88% 30.24 in 10.0 mi SW 3.5 mph - N/A   Overcast
5:15 AM 69.8 °F - 66.2 °F 88% 30.25 in 10.0 mi WSW 3.5 mph - N/A   Mostly Cloudy
5:35 AM 69.8 °F - 66.2 °F 88% 30.25 in 10.0 mi SW 3.5 mph - N/A   Mostly Cloudy
5:45 AM 69.8 °F - 66.2 °F 88% 30.25 in 10.0 mi SW 4.6 mph - N/A   Mostly Cloudy
6:09 AM 69.8 °F - 66.2 °F 88% 30.26 in 10.0 mi SW 4.6 mph - N/A   Mostly Cloudy
6:50 AM 69.8 °F - 66.2 °F 88% 30.27 in 10.0 mi SW 4.6 mph - N/A   Mostly Cloudy
7:45 AM 71.6 °F - 66.2 °F 83% 30.28 in 10.0 mi WSW 3.5 mph - N/A   Scattered Clouds
8:45 AM 71.6 °F - 68.0 °F 88% 30.29 in 10.0 mi WSW 4.6 mph - N/A   Scattered Clouds
9:45 AM 75.2 °F - 69.8 °F 83% 30.28 in 10.0 mi WSW 4.6 mph - N/A   Scattered Clouds
10:30 AM 78.8 °F - 69.8 °F 74% 30.28 in 10.0 mi WSW 5.8 mph - N/A   Mostly Cloudy
10:45 AM 80.6 °F 84.6 °F 71.6 °F 74% 30.28 in 10.0 mi SW 8.1 mph - N/A   Mostly Cloudy
11:45 AM 80.6 °F 84.6 °F 71.6 °F 74% 30.28 in 10.0 mi WSW 6.9 mph - N/A   Mostly Cloudy
12:45 PM 80.6 °F 84.6 °F 71.6 °F 74% 30.28 in 10.0 mi SW 8.1 mph - N/A   Mostly Cloudy
1:55 PM 80.6 °F 84.6 °F 71.6 °F 74% 30.27 in 10.0 mi SW 9.2 mph - N/A   Mostly Cloudy
2:55 PM 82.4 °F 87.2 °F 71.6 °F 70% 30.26 in 10.0 mi SW 10.4 mph 16.1 mph N/A   Mostly Cloudy
3:45 PM 80.6 °F 84.6 °F 71.6 °F 74% 30.24 in 10.0 mi SW 4.6 mph - N/A   Scattered Clouds
4:45 PM 80.6 °F 84.6 °F 71.6 °F 74% 30.24 in 10.0 mi SSW 8.1 mph - N/A   Scattered Clouds
5:45 PM 78.8 °F - 71.6 °F 78% 30.23 in 10.0 mi SSW 8.1 mph - N/A   Scattered Clouds
7:55 PM 77.0 °F - 71.6 °F 83% 30.25 in 10.0 mi South 9.2 mph - N/A   Scattered Clouds
8:45 PM 75.2 °F - 69.8 °F 83% 30.25 in 10.0 mi SSW 6.9 mph - N/A   Partly Cloudy
9:15 PM 73.4 °F - 69.8 °F 88% 30.25 in 10.0 mi South 8.1 mph - N/A   Partly Cloudy
9:35 PM 73.4 °F - 69.8 °F 88% 30.27 in 10.0 mi South 5.8 mph - N/A   Clear
9:55 PM 73.4 °F - 69.8 °F 88% 30.27 in 10.0 mi South 5.8 mph - N/A   Partly Cloudy
10:15 PM 73.4 °F - 69.8 °F 88% 30.27 in 10.0 mi South 5.8 mph - N/A   Mostly Cloudy
10:35 PM 73.4 °F - 69.8 °F 88% 30.27 in 10.0 mi SSW 3.5 mph - N/A   Mostly Cloudy
10:55 PM 73.4 °F - 69.8 °F 88% 30.27 in 10.0 mi SSW 3.5 mph - N/A   Mostly Cloudy
11:15 PM 73.4 °F - 69.8 °F 88% 30.27 in 10.0 mi SSW 4.6 mph - N/A   Partly Cloudy
11:35 PM 73.4 °F - 69.8 °F 88% 30.27 in 10.0 mi SSW 4.6 mph - N/A   Scattered Clouds
11:55 PM 71.6 °F - 69.8 °F 94% 30.27 in 6.0 mi SSW 3.5 mph - N/A   Overcast